Overview Statistics Trail Chart Weather Telemetry Raw packets
 

This is the latest recevied weather packets stored in our database for station/object N5TDX. If no packets are shown the sender has not sent any weather packets the latest 10 day(s).

<< 6 7 8 9 10 11 12 >>
Time Temp. Humidity Pressure Rain* Wind** Luminosity Snow
1788616065 27.22° C 74% 1011.8 hPa 0 mm - - -
1788615765 27.22° C 75% 1011.8 hPa 0 mm - - -
1788615459 26.67° C 76% 1011.7 hPa 0 mm - - -
1788615155 26.67° C 77% 1011.4 hPa 0 mm - - -
1788614853 26.67° C 77% 1011.8 hPa 0 mm - - -
1788614549 26.67° C 77% 1011.7 hPa 0 mm - - -
1788614244 26.11° C 78% 1011.8 hPa 0 mm - - -
1788613940 26.11° C 79% 1011.7 hPa 0 mm - - -
1788613640 25.56° C 80% 1011.5 hPa 0 mm - - -
1788613339 25.56° C 82% 1011.5 hPa 0 mm - - -
1788613034 25° C 82% 1011.4 hPa 0 mm - - -
1788612729 25° C 83% 1011.4 hPa 0 mm - - -
1788612433 24.44° C 85% 1011.2 hPa 0 mm - - -
1788612122 24.44° C 85% 1011.2 hPa 0 mm - - -
1788611816 24.44° C 85% 1011.2 hPa 0 mm - - -
1788611514 24.44° C 84% 1010.8 hPa 0 mm - - -
1788611213 24.44° C 84% 1010.9 hPa 0 mm - - -
1788610908 24.44° C 84% 1011 hPa 0 mm - - -
1788610608 24.44° C 83% 1011 hPa 0 mm - - -
1788610304 24.44° C 83% 1011.2 hPa 0 mm - - -
1788610002 25° C 83% 1011.3 hPa 0 mm - - -
1788609698 25° C 82% 1011 hPa 0 mm - - -
1788609397 25° C 82% 1011 hPa 0 mm - - -
1788609093 24.44° C 82% 1011 hPa 0 mm - - -
1788608792 25° C 82% 1010.8 hPa 0 mm - - -

* Rain latest hour (hover to see other rain measurements)
** Current wind speed in m/s (hover to see current wind gust speed)